• In Belgien
  • Länderverzeichnis
  • Für 7 Tage
  • Wassertemperatur
  • Satellitenkarten
  • Wetterkarte
  • Widgets
  • user-avatar
    Anmelden

    Stündliche Wetter Durbuy

    Heute, 14 August, Dienstag

    Zeit Temperatur Niederschläge Wind Luftdruck Luftfeuchtigkeit
    00:00 +15°C° 0 mm 2 m/S 739 mmHg 97%
    01:00 +14°C° 0 mm 2 m/S 739 mmHg 97%
    02:00 +13°C° 0 mm 3 m/S 739 mmHg 97%
    03:00 +13°C° 0 mm 3 m/S 739 mmHg 98%
    04:00 +14°C° 0 mm 3 m/S 740 mmHg 97%
    05:00 +14°C° 0 mm 3 m/S 740 mmHg 96%
    06:00 +14°C° 0 mm 3 m/S 741 mmHg 96%
    07:00 +16°C° 0 mm 3 m/S 741 mmHg 93%
    08:00 +17°C° 0 mm 3 m/S 741 mmHg 90%
    09:00 +18°C° 0 mm 3 m/S 742 mmHg 88%
    10:00 +20°C° 0,1 mm 3 m/S 742 mmHg 82%
    11:00 +21°C° 0,1 mm 4 m/S 742 mmHg 76%
    12:00 +22°C° 0,1 mm 4 m/S 742 mmHg 71%
    13:00 +23°C° 0,3 mm 4 m/S 742 mmHg 70%
    14:00 +23°C° 0,3 mm 4 m/S 742 mmHg 69%
    15:00 +23°C° 0,3 mm 4 m/S 742 mmHg 68%
    16:00 +22°C° 0,2 mm 4 m/S 743 mmHg 72%
    17:00 +22°C° 0,2 mm 3 m/S 743 mmHg 76%
    18:00 +21°C° 0,2 mm 3 m/S 743 mmHg 80%
    19:00 +19°C° 0 mm 2 m/S 743 mmHg 83%
    20:00 +18°C° 0 mm 2 m/S 744 mmHg 87%
    21:00 +16°C° 0 mm 1 m/S 744 mmHg 90%
    22:00 +16°C° 0 mm 1 m/S 744 mmHg 91%
    23:00 +15°C° 0 mm 1 m/S 744 mmHg 92%

    Morgen, 15 August, Mittwoch

    Zeit Temperatur Niederschläge Wind Luftdruck Luftfeuchtigkeit
    00:00 +15°C° 0 mm 1 m/S 745 mmHg 93%
    01:00 +14°C° 0 mm 1 m/S 745 mmHg 94%
    02:00 +14°C° 0 mm 1 m/S 745 mmHg 94%
    03:00 +14°C° 0 mm 2 m/S 745 mmHg 94%
    04:00 +15°C° 0 mm 2 m/S 745 mmHg 94%
    05:00 +15°C° 0 mm 2 m/S 745 mmHg 93%
    06:00 +16°C° 0 mm 2 m/S 745 mmHg 92%
    07:00 +18°C° 0 mm 2 m/S 745 mmHg 84%
    08:00 +20°C° 0 mm 2 m/S 746 mmHg 76%
    09:00 +23°C° 0 mm 2 m/S 746 mmHg 69%
    10:00 +24°C° 0 mm 3 m/S 746 mmHg 66%
    11:00 +24°C° 0 mm 3 m/S 746 mmHg 63%
    12:00 +25°C° 0 mm 3 m/S 745 mmHg 61%
    13:00 +26°C° 0 mm 2 m/S 745 mmHg 59%
    14:00 +26°C° 0 mm 2 m/S 745 mmHg 57%
    15:00 +27°C° 0 mm 2 m/S 745 mmHg 55%
    16:00 +26°C° 0 mm 2 m/S 745 mmHg 60%
    17:00 +25°C° 0 mm 2 m/S 745 mmHg 66%
    18:00 +24°C° 0 mm 1 m/S 744 mmHg 71%
    19:00 +22°C° 0 mm 1 m/S 745 mmHg 76%
    20:00 +21°C° 0 mm 1 m/S 745 mmHg 80%
    21:00 +19°C° 0 mm 1 m/S 745 mmHg 85%
    22:00 +18°C° 0 mm 1 m/S 745 mmHg 87%
    23:00 +18°C° 0 mm 1 m/S 745 mmHg 88%

    übermorgen, 16 August, Donnerstag

    Zeit Temperatur Niederschläge Wind Luftdruck Luftfeuchtigkeit
    00:00 +18°C° 0 mm 1 m/S 744 mmHg 90%
    01:00 +16°C° 0 mm 1 m/S 744 mmHg 91%
    02:00 +16°C° 0 mm 1 m/S 744 mmHg 91%
    03:00 +16°C° 0 mm 1 m/S 744 mmHg 92%
    04:00 +16°C° 0 mm 1 m/S 744 mmHg 90%
    05:00 +18°C° 0 mm 1 m/S 744 mmHg 88%
    06:00 +19°C° 0 mm 1 m/S 744 mmHg 85%
    07:00 +20°C° 0 mm 2 m/S 744 mmHg 76%
    08:00 +23°C° 0 mm 2 m/S 744 mmHg 67%
    09:00 +25°C° 0 mm 2 m/S 744 mmHg 58%
    10:00 +27°C° 0 mm 2 m/S 743 mmHg 54%
    11:00 +28°C° 0 mm 2 m/S 743 mmHg 49%
    12:00 +29°C° 0 mm 2 m/S 742 mmHg 45%
    13:00 +29°C° 0 mm 2 m/S 742 mmHg 45%
    14:00 +29°C° 0 mm 2 m/S 742 mmHg 44%
    15:00 +30°C° 0 mm 2 m/S 741 mmHg 44%
    16:00 +28°C° 0 mm 2 m/S 741 mmHg 50%
    17:00 +27°C° 0 mm 2 m/S 741 mmHg 57%
    18:00 +26°C° 0 mm 2 m/S 741 mmHg 64%
    19:00 +24°C° 0,1 mm 2 m/S 741 mmHg 71%
    20:00 +21°C° 0,1 mm 2 m/S 741 mmHg 79%
    21:00 +19°C° 0,1 mm 2 m/S 742 mmHg 86%
    22:00 +18°C° 0,3 mm 2 m/S 742 mmHg 90%
    23:00 +18°C° 0,3 mm 2 m/S 742 mmHg 93%

    17 August, Freitag

    Zeit Temperatur Niederschläge Wind Luftdruck Luftfeuchtigkeit
    00:00 +17°C° 0,3 mm 2 m/S 742 mmHg 96%
    01:00 +17°C° 0,6 mm 2 m/S 742 mmHg 97%
    02:00 +16°C° 0,6 mm 2 m/S 742 mmHg 97%
    03:00 +16°C° 0,6 mm 2 m/S 742 mmHg 97%
    04:00 +16°C° 0,3 mm 2 m/S 743 mmHg 96%
    05:00 +16°C° 0,3 mm 2 m/S 743 mmHg 96%
    06:00 +16°C° 0,3 mm 2 m/S 743 mmHg 95%
    07:00 +17°C° 0 mm 2 m/S 744 mmHg 88%
    08:00 +18°C° 0 mm 2 m/S 744 mmHg 81%
    09:00 +19°C° 0 mm 3 m/S 745 mmHg 74%
    10:00 +20°C° 0 mm 3 m/S 745 mmHg 67%
    11:00 +21°C° 0 mm 3 m/S 745 mmHg 60%
    12:00 +22°C° 0 mm 3 m/S 745 mmHg 53%
    13:00 +22°C° 0 mm 3 m/S 745 mmHg 54%
    14:00 +22°C° 0 mm 3 m/S 745 mmHg 55%
    15:00 +21°C° 0 mm 3 m/S 745 mmHg 56%
    16:00 +21°C° 0 mm 3 m/S 745 mmHg 60%
    17:00 +20°C° 0 mm 2 m/S 746 mmHg 64%
    18:00 +19°C° 0 mm 2 m/S 746 mmHg 68%
    19:00 +19°C° 0 mm 1 m/S 746 mmHg 71%
    20:00 +16°C° 0 mm 1 m/S 747 mmHg 75%
    21:00 +15°C° 0 mm 1 m/S 747 mmHg 79%
    22:00 +14°C° 0 mm 1 m/S 747 mmHg 81%
    23:00 +14°C° 0 mm 1 m/S 747 mmHg 83%

    18 August, Samstag

    Zeit Temperatur Niederschläge Wind Luftdruck Luftfeuchtigkeit
    00:00 +13°C° 0 mm 1 m/S 747 mmHg 85%
    01:00 +13°C° 0 mm 1 m/S 747 mmHg 86%
    02:00 +12°C° 0 mm 1 m/S 747 mmHg 88%
    03:00 +12°C° 0 mm 1 m/S 747 mmHg 90%
    04:00 +12°C° 0 mm 1 m/S 747 mmHg 88%
    05:00 +13°C° 0 mm 1 m/S 748 mmHg 86%
    06:00 +14°C° 0 mm 2 m/S 748 mmHg 84%
    07:00 +16°C° 0 mm 2 m/S 748 mmHg 76%
    08:00 +18°C° 0 mm 2 m/S 748 mmHg 69%
    09:00 +20°C° 0 mm 3 m/S 748 mmHg 61%
    10:00 +20°C° 0 mm 3 m/S 748 mmHg 60%
    11:00 +21°C° 0 mm 3 m/S 748 mmHg 58%
    12:00 +22°C° 0 mm 3 m/S 748 mmHg 57%
    13:00 +22°C° 0 mm 3 m/S 747 mmHg 57%
    14:00 +24°C° 0 mm 3 m/S 747 mmHg 58%
    15:00 +24°C° 0 mm 3 m/S 747 mmHg 58%
    16:00 +22°C° 0 mm 3 m/S 747 mmHg 64%
    17:00 +21°C° 0 mm 3 m/S 747 mmHg 69%
    18:00 +20°C° 0 mm 2 m/S 747 mmHg 75%
    19:00 +19°C° 0 mm 2 m/S 747 mmHg 81%
    20:00 +17°C° 0 mm 2 m/S 747 mmHg 86%
    21:00 +16°C° 0 mm 2 m/S 748 mmHg 92%
    22:00 +15°C° 0 mm 1 m/S 748 mmHg 93%
    23:00 +15°C° 0 mm 1 m/S 748 mmHg 94%

    19 August, Sonntag

    Zeit Temperatur Niederschläge Wind Luftdruck Luftfeuchtigkeit
    00:00 +15°C° 0 mm 1 m/S 748 mmHg 95%
    01:00 +14°C° 0 mm 1 m/S 748 mmHg 96%
    02:00 +14°C° 0 mm 1 m/S 747 mmHg 96%
    03:00 +14°C° 0 mm 1 m/S 747 mmHg 96%
    04:00 +15°C° 0 mm 1 m/S 747 mmHg 95%
    05:00 +15°C° 0 mm 1 m/S 747 mmHg 94%
    06:00 +16°C° 0 mm 1 m/S 748 mmHg 92%
    07:00 +19°C° 0 mm 1 m/S 748 mmHg 85%
    08:00 +20°C° 0 mm 2 m/S 748 mmHg 78%
    09:00 +23°C° 0 mm 2 m/S 748 mmHg 71%
    10:00 +24°C° 0 mm 2 m/S 748 mmHg 67%
    11:00 +26°C° 0 mm 2 m/S 748 mmHg 63%
    12:00 +27°C° 0 mm 3 m/S 748 mmHg 59%
    13:00 +27°C° 0 mm 3 m/S 747 mmHg 58%
    14:00 +27°C° 0 mm 3 m/S 747 mmHg 57%
    15:00 +28°C° 0 mm 3 m/S 747 mmHg 56%
    16:00 +27°C° 0 mm 3 m/S 746 mmHg 61%
    17:00 +25°C° 0 mm 2 m/S 746 mmHg 66%
    18:00 +24°C° 0 mm 2 m/S 746 mmHg 72%
    19:00 +23°C° 0 mm 2 m/S 746 mmHg 75%
    20:00 +20°C° 0 mm 2 m/S 746 mmHg 79%
    21:00 +19°C° 0 mm 2 m/S 747 mmHg 83%
    22:00 +18°C° 0 mm 2 m/S 747 mmHg 83%
    23:00 +17°C° 0 mm 2 m/S 746 mmHg 83%
    Mehr zeigen